Date,TemperatureHighF,TemperatureAvgF,TemperatureLowF,DewpointHighF,DewpointAvgF,DewpointLowF,HumidityHigh,HumidityAvg,HumidityLow,PressureMaxIn,PressureMinIn,WindSpeedMaxMPH,WindSpeedAvgMPH,GustSpeedMaxMPH,PrecipitationSumIn
2013-1-1,24,14,3,24,4,-10,100,61,43,29.80,29.56,15,7,28,0.00
2013-1-2,13,2,-11,1,-12,-24,55,49,47,30.03,29.71,9,3,18,0.00
2013-1-3,16,-1,-14,-1,-16,-27,47,45,42,30.09,29.80,4,1,8,0.00
2013-1-4,60,20,7,26,15,-9,100,80,42,29.92,29.62,10,4,18,0.00
2013-1-5,28,20,8,24,10,-1,93,64,42,30.12,29.65,14,5,32,0.00
2013-1-6,27,20,11,27,16,2,100,85,61,30.09,29.77,5,2,11,0.00
2013-1-7,29,18,10,27,11,0,100,70,42,30.24,29.83,6,3,12,0.04
2013-1-8,40,25,9,21,15,3,83,65,41,30.30,30.06,7,-582,9,0.00
2013-1-9,35,27,20,29,22,18,94,80,61,30.30,29.80,8,-307,17,0.00
2013-1-10,35,31,21,32,22,15,100,69,54,30.45,29.85,15,7,29,0.00
2013-1-11,31,25,16,30,20,13,99,79,56,30.45,30.06,3,1,6,0.00
2013-1-12,38,34,30,38,34,30,100,100,99,30.09,30.00,4,1,8,0.29
2013-1-13,42,35,32,42,35,32,100,100,100,30.03,29.83,4,1,9,0.04
2013-1-14,43,37,30,43,32,19,100,83,57,30.15,29.77,11,4,24,0.00
2013-1-15,29,26,20,19,16,13,75,63,52,30.24,30.12,6,2,12,0.00
2013-1-16,26,24,22,26,21,16,100,88,74,30.15,29.68,5,1,7,0.00
2013-1-17,27,18,4,27,8,-14,100,67,35,30.03,29.68,13,4,25,0.00
2013-1-18,14,3,-7,-5,-15,-23,40,38,36,30.24,30.00,12,3,20,0.00
2013-1-19,30,20,6,24,10,-13,90,63,36,30.15,29.74,4,2,9,0.00
2013-1-20,37,27,8,32,17,-2,93,64,43,29.80,29.35,16,6,28,0.00
2013-1-21,19,8,-3,2,-5,-13,59,50,40,29.94,29.74,11,3,22,0.00
2013-1-22,60,5,-6,58,-9,-19,98,49,44,29.92,29.65,11,5,19,3.29
2013-1-23,3,-10,-18,-11,-22,-30,49,49,49,30.00,29.88,9,-2,14,0.00
2013-1-24,8,-8,-19,-6,-20,-31,49,49,49,30.15,29.88,16,-210,29,0.00
2013-1-25,15,2,-9,-2,-13,-22,49,45,40,30.15,29.94,6,2,12,0.00
2013-1-26,16,8,2,-3,-10,-15,41,39,37,30.03,29.91,10,4,19,0.00
2013-1-27,20,8,0,2,-11,-18,45,38,36,30.33,30.18,8,3,20,0.00
2013-1-28,15,9,0,12,-5,-18,83,51,37,30.33,29.91,3,1,4,0.00
2013-1-29,27,20,8,27,16,5,100,82,70,30.09,29.94,5,1,8,0.00
2013-1-30,48,39,27,48,39,27,100,100,100,29.97,29.35,7,2,15,0.67
2013-1-31,60,40,18,50,38,3,100,93,47,29.92,28.79,14,3,28,0.95